Date,TemperatureHighF,TemperatureAvgF,TemperatureLowF,DewpointHighF,DewpointAvgF,DewpointLowF,HumidityHigh,HumidityAvg,HumidityLow,PressureMaxIn,PressureMinIn,WindSpeedMaxMPH,WindSpeedAvgMPH,GustSpeedMaxMPH,PrecipitationSumIn
2013-1-1,20.0,14.7,7.0,6.0,3.1,-3.0,67,60,51,0.00,40.00,9,6,14,0.00
2013-1-2,23.0,19.1,12.0,16.0,11.6,0.0,78,73,59,0.00,40.00,10,6,15,0.00
2013-1-3,28.0,21.8,16.0,19.0,14.7,11.0,86,74,57,0.00,40.00,13,6,21,0.00
2013-1-4,37.0,25.7,19.0,19.0,13.9,9.0,73,61,45,0.00,40.00,14,7,21,0.01
2013-1-5,34.0,21.3,4.0,28.0,15.0,0.0,85,77,59,0.00,40.00,8,4,14,0.01
2013-1-6,29.0,20.1,1.0,25.0,14.0,-4.0,89,78,60,0.00,40.00,10,4,22,0.00
2013-1-7,35.0,24.3,1.0,25.0,16.1,-4.0,87,72,54,0.00,40.00,19,10,33,0.00
2013-1-8,37.0,31.0,15.0,34.0,25.4,12.0,90,80,68,0.00,40.00,15,6,25,0.00
2013-1-9,38.0,33.8,21.0,33.0,24.8,16.0,82,70,53,0.00,40.00,15,8,25,0.00
2013-1-10,40.0,28.5,14.0,33.0,22.8,11.0,89,80,62,0.00,40.00,10,5,15,0.00
2013-1-11,40.0,37.2,35.0,39.0,35.8,31.0,98,95,83,0.00,40.00,10,6,16,0.25
2013-1-12,43.0,38.1,29.0,42.0,32.4,19.0,98,81,59,0.00,40.00,15,10,27,0.02
2013-1-13,28.0,23.9,19.0,19.0,16.1,12.0,85,72,65,0.00,40.00,6,4,12,0.01
2013-1-14,24.0,15.6,8.0,11.0,5.5,1.0,80,64,47,0.00,40.00,11,7,16,0.00
2013-1-15,29.0,17.1,2.0,14.0,5.8,-4.0,77,61,46,0.00,40.00,13,8,22,0.00
2013-1-16,29.0,24.4,20.0,22.0,14.8,4.0,84,67,46,0.00,40.00,15,9,25,0.00
2013-1-17,19.0,9.9,3.0,9.0,-3.0,-8.0,71,56,38,0.00,40.00,10,6,19,0.00
2013-1-18,19.0,10.4,1.0,16.0,4.5,-8.0,86,76,62,0.00,40.00,8,4,12,0.00
2013-1-19,32.0,23.0,16.0,29.0,19.1,7.0,93,85,62,0.00,40.00,13,4,29,0.00
2013-1-20,15.0,5.6,-17.0,4.0,-7.2,-24.0,73,56,40,0.00,40.00,13,7,29,0.00
2013-1-21,5.0,-2.5,-10.0,-9.0,-16.9,-24.0,69,51,32,0.00,40.00,10,7,21,0.00
2013-1-22,5.0,-5.1,-13.0,-15.0,-19.3,-23.0,60,50,33,0.00,40.00,9,6,17,0.00
2013-1-23,11.0,1.9,-7.0,7.0,-9.8,-18.0,82,58,42,0.00,40.00,9,6,20,0.00
2013-1-24,15.0,6.8,-10.0,3.0,-2.2,-15.0,82,67,47,0.00,40.00,7,3,19,0.01
2013-1-25,26.0,12.3,-1.0,15.0,6.9,-6.0,87,78,62,0.00,40.00,4,2,8,0.01
2013-1-26,28.0,19.5,8.0,17.0,12.2,4.0,85,74,54,0.00,40.00,7,4,15,0.06
2013-1-27,32.0,27.0,20.0,30.0,20.9,12.0,95,78,57,0.00,40.00,12,9,22,0.01
2013-1-28,37.0,32.5,30.0,33.0,30.7,29.0,96,93,83,0.00,40.00,7,4,14,0.15
2013-1-29,38.0,34.7,32.0,37.0,33.0,30.0,97,94,88,0.00,40.00,11,6,17,0.54
2013-1-30,34.0,26.5,18.0,31.0,22.6,14.0,91,85,76,0.00,40.00,12,10,25,0.08
2013-1-31,17.0,12.6,8.0,13.0,3.8,0.0,83,67,59,0.00,40.00,11,8,21,0.00
2013-2-1,13.0,7.0,-3.0,0.0,-5.1,-13.0,73,58,42,0.00,40.00,10,6,16,0.00
2013-2-2,20.0,3.3,-12.0,1.0,-9.1,-19.0,73,57,39,0.00,40.00,7,4,16,0.00
2013-2-3,19.0,4.1,-13.0,5.0,-6.3,-20.0,77,63,40,0.00,40.00,9,4,20,0.00
2013-2-4,19.0,2.2,-23.0,-4.0,-10.4,-31.0,74,57,35,0.00,40.00,6,2,11,0.00
2013-2-5,26.0,9.6,-13.0,14.0,1.3,-20.0,83,70,49,0.00,40.00,9,4,17,0.03
2013-2-6,23.0,13.3,-17.0,16.0,5.0,-24.0,88,70,50,0.00,40.00,7,3,10,0.02
2013-2-7,21.0,19.8,19.0,18.0,16.5,15.0,90,87,83,0.00,40.00,9,6,17,0.00
2013-2-8,28.0,19.8,-9.0,17.0,10.5,-16.0,85,68,44,0.00,40.00,10,6,17,0.04
2013-2-9,26.0,9.1,-14.0,21.0,2.5,-21.0,83,74,66,0.00,40.00,10,4,17,0.01
2013-2-10,34.0,29.0,24.0,31.0,24.6,20.0,94,83,74,0.00,40.00,13,7,21,0.01
2013-2-11,39.0,32.1,24.0,38.0,28.2,14.0,97,86,65,0.00,40.00,13,8,26,0.95
2013-2-12,29.0,23.0,19.0,18.0,14.8,13.0,85,71,56,0.00,40.00,9,6,14,0.01
2013-2-13,35.0,25.3,18.0,25.0,19.2,13.0,93,78,64,0.00,40.00,8,4,12,0.00
2013-2-14,35.0,25.8,19.0,30.0,21.2,9.0,94,83,63,0.00,40.00,12,6,26,0.12
2013-2-15,22.0,17.0,6.0,14.0,6.7,-3.0,82,64,45,0.00,40.00,8,6,16,0.04
2013-2-16,22.0,11.7,4.0,10.0,2.7,-3.0,80,67,46,0.00,40.00,8,4,18,0.00
2013-2-17,21.0,8.1,-17.0,4.0,-3.1,-25.0,81,61,42,0.00,40.00,9,4,15,0.00
2013-2-18,36.0,28.5,9.0,32.0,23.0,2.0,95,80,70,0.00,40.00,19,10,26,0.04
2013-2-19,33.0,20.4,11.0,32.0,15.0,0.0,96,79,60,0.00,40.00,14,6,26,0.04
2013-2-20,19.0,14.9,11.0,13.0,9.8,6.0,84,80,74,0.00,40.00,11,8,22,0.00
2013-2-21,25.0,20.5,15.0,19.0,15.8,10.0,86,82,77,0.00,40.00,11,8,24,0.00
2013-2-22,24.0,20.9,16.0,20.0,17.5,12.0,90,87,82,0.00,40.00,10,7,17,0.00
2013-2-23,31.0,23.4,15.0,24.0,19.1,12.0,92,84,72,0.00,40.00,8,3,11,0.27
2013-2-24,37.0,30.3,26.0,27.0,24.1,22.0,93,79,57,0.00,40.00,6,3,13,0.06
2013-2-25,35.0,29.9,25.0,27.0,23.8,21.0,90,78,60,0.00,40.00,7,4,10,0.01
2013-2-26,36.0,31.8,29.0,28.0,25.2,21.0,89,77,59,0.00,40.00,12,7,20,0.01
2013-2-27,34.0,30.7,27.0,31.0,27.3,21.0,95,87,74,0.00,40.00,11,8,20,0.11
2013-2-28,32.0,28.4,24.0,30.0,22.4,15.0,94,78,62,0.00,40.00,15,10,29,0.01
2013-3-1,27.0,22.4,18.0,15.0,12.5,8.0,79,66,48,0.00,40.00,12,9,25,0.01
2013-3-2,28.0,17.8,-1.0,15.0,8.5,-6.0,81,68,48,0.00,40.00,11,7,21,0.01
2013-3-3,31.0,11.8,-10.0,15.0,1.9,-16.0,81,66,41,0.00,40.00,9,4,18,0.00
2013-3-4,38.0,15.6,-9.0,16.0,3.9,-15.0,82,62,35,0.00,40.00,8,3,14,0.00
2013-3-5,37.0,21.8,3.0,21.0,11.5,-1.0,86,66,40,0.00,40.00,10,5,21,0.00
2013-3-6,33.0,29.2,24.0,28.0,23.6,17.0,87,79,73,0.00,40.00,9,5,16,0.02
2013-3-7,34.0,23.0,7.0,19.0,13.2,4.0,87,67,43,0.00,40.00,8,4,13,0.01
2013-3-8,35.0,17.6,-4.0,24.0,10.2,-10.0,87,73,56,0.00,40.00,11,4,18,0.01
2013-3-9,37.0,30.1,19.0,32.0,26.1,17.0,94,85,73,0.00,40.00,13,7,21,0.12
2013-3-10,38.0,34.7,32.0,36.0,32.4,29.0,96,91,83,0.00,40.00,14,7,22,0.35
2013-3-11,36.0,33.0,29.0,33.0,30.7,24.0,96,91,81,0.00,40.00,10,7,20,0.55
2013-3-12,29.0,24.5,18.0,25.0,16.9,11.0,84,73,55,0.00,40.00,9,7,16,0.03
2013-3-13,32.0,23.2,10.0,17.0,11.7,1.0,89,65,26,0.00,40.00,11,6,23,0.03
2013-3-14,36.0,20.2,-3.0,19.0,8.6,-9.0,85,63,40,0.00,40.00,13,5,23,0.03
2013-3-15,31.0,27.4,19.0,25.0,15.5,7.0,78,61,48,0.00,40.00,11,8,23,0.00
2013-3-16,29.0,21.4,12.0,13.0,9.7,7.0,86,62,42,0.00,40.00,9,4,19,0.01
2013-3-17,26.0,16.2,7.0,9.0,3.9,-2.0,77,59,42,0.00,40.00,10,5,19,0.01
2013-3-18,35.0,24.0,4.0,29.0,17.3,0.0,95,77,50,0.00,40.00,14,7,22,0.00
2013-3-19,32.0,25.6,20.0,26.0,17.4,9.0,94,72,50,0.00,40.00,12,8,24,0.16
2013-3-20,28.0,20.0,10.0,15.0,9.0,5.0,81,63,43,0.00,40.00,8,7,21,0.01
2013-3-21,30.0,24.0,18.0,17.0,13.9,10.0,81,66,47,0.00,40.00,10,6,20,0.01
2013-3-22,37.0,26.3,16.0,24.0,17.3,10.0,81,69,54,0.00,40.00,10,5,17,0.01
2013-3-23,37.0,30.2,26.0,28.0,21.0,19.0,82,70,55,0.00,40.00,7,4,14,0.01
2013-3-24,36.0,30.3,26.0,23.0,19.5,17.0,79,64,47,0.00,40.00,11,6,19,0.00
2013-3-25,38.0,30.3,23.0,25.0,22.1,20.0,88,72,50,0.00,40.00,12,7,22,0.00
2013-3-26,42.0,34.3,28.0,32.0,25.9,20.0,94,73,42,0.00,40.00,10,6,20,0.03
2013-3-27,46.0,34.4,26.0,23.0,19.8,16.0,76,58,31,0.00,40.00,11,5,20,0.01
2013-3-28,50.0,41.7,26.0,19.0,16.2,14.0,66,37,28,0.00,40.00,8,5,15,0.00
2013-3-29,51.0,31.5,13.0,22.0,16.9,10.0,88,59,25,0.00,40.00,10,3,16,0.00
2013-3-30,38.0,31.3,23.0,34.0,25.8,18.0,96,81,53,0.00,40.00,12,7,22,0.25
2013-3-31,47.0,36.2,25.0,35.0,25.8,-99.9,97,73,35,0.00,40.00,12,7,28,0.21
2013-4-1,33.0,24.1,16.0,19.0,9.7,4.0,76,55,35,0.00,40.00,9,7,20,0.01
2013-4-2,38.0,24.1,12.0,10.0,6.8,4.0,69,49,26,0.00,40.00,10,5,20,0.00
2013-4-3,37.0,26.4,12.0,20.0,10.8,4.0,74,53,35,0.00,40.00,12,6,17,0.00
2013-4-4,50.0,37.1,30.0,29.0,24.2,20.0,76,61,38,0.00,40.00,13,9,22,0.00
2013-4-5,41.0,32.3,26.0,25.0,16.9,10.0,77,55,27,0.00,40.00,8,4,17,0.00
2013-4-6,39.0,32.4,27.0,33.0,27.2,18.0,94,81,67,0.00,40.00,15,7,25,0.20
2013-4-7,41.0,36.4,30.0,34.0,30.1,26.0,96,79,59,0.00,40.00,9,5,21,0.31
2013-4-8,39.0,33.9,28.0,36.0,31.1,26.0,96,90,75,0.00,40.00,8,4,15,0.17
2013-4-9,39.0,34.0,31.0,36.0,30.7,23.0,97,88,72,0.00,40.00,11,5,22,0.11
2013-4-10,46.0,36.1,31.0,26.0,21.1,11.0,78,57,31,0.00,40.00,12,8,22,0.00
2013-4-11,35.0,32.4,28.0,26.0,17.2,9.0,92,55,33,0.00,40.00,15,10,30,0.00
2013-4-12,33.0,29.0,26.0,30.0,26.5,24.0,95,91,85,0.00,40.00,12,7,24,0.28
2013-4-13,40.0,28.7,15.0,30.0,23.1,12.0,95,81,58,0.00,40.00,8,3,16,0.06
2013-4-14,45.0,29.0,12.0,31.0,21.9,9.0,93,77,42,0.00,40.00,12,4,17,0.01
2013-4-15,54.0,42.2,35.0,41.0,33.4,23.0,95,72,45,0.00,40.00,13,8,28,0.21
2013-4-16,49.0,40.2,33.0,28.0,26.6,24.0,79,59,41,0.00,40.00,9,7,17,0.01
2013-4-17,45.0,36.5,25.0,33.0,28.5,24.0,94,74,52,0.00,40.00,10,6,20,0.00
2013-4-18,40.0,37.9,35.0,39.0,35.8,29.0,96,92,69,0.00,40.00,9,6,16,0.25
2013-4-19,41.0,34.0,23.0,40.0,28.9,15.0,97,82,58,0.00,40.00,18,12,34,0.33
2013-4-20,38.0,27.7,19.0,20.0,14.7,12.0,90,61,35,0.00,40.00,8,6,20,0.07
2013-4-21,43.0,31.9,19.0,31.0,20.7,13.0,90,65,38,0.00,40.00,19,9,27,0.01
2013-4-22,41.0,38.7,35.0,39.0,35.2,29.0,96,88,67,0.00,40.00,11,7,20,0.53
2013-4-23,40.0,36.2,33.0,36.0,32.6,26.0,97,88,71,0.00,40.00,8,5,16,0.22
2013-4-24,50.0,37.3,24.0,28.0,23.3,17.0,93,62,27,0.00,40.00,13,4,17,0.01
2013-4-25,52.0,39.7,27.0,33.0,27.3,19.0,95,66,28,0.00,40.00,10,5,19,0.10
2013-4-26,55.0,39.0,24.0,39.0,30.6,22.0,93,75,46,0.00,40.00,19,7,30,0.03
2013-4-27,65.0,47.0,28.0,48.0,38.1,27.0,96,74,51,0.00,40.00,15,6,21,0.01
2013-4-28,72.0,52.2,31.0,40.0,35.5,29.0,94,59,24,0.00,40.00,10,5,24,0.00
2013-4-29,64.0,48.5,36.0,52.0,43.9,34.0,96,85,64,0.00,40.00,10,4,17,0.07
2013-4-30,65.0,57.1,47.0,54.0,49.9,45.0,96,78,64,0.00,40.00,25,11,36,0.24
2013-5-1,67.0,55.2,40.0,51.0,41.5,29.0,89,62,38,0.00,40.00,15,7,25,0.23
2013-5-2,51.0,39.3,34.0,35.0,32.0,29.0,92,76,54,0.00,40.00,14,10,25,0.56
2013-5-3,49.0,38.9,34.0,37.0,33.4,32.0,93,81,61,0.00,40.00,12,9,21,0.67
2013-5-4,72.0,49.5,36.0,47.0,38.8,32.0,93,71,39,0.00,40.00,10,7,17,0.02
2013-5-5,74.0,51.3,36.0,41.0,36.3,32.0,93,63,23,0.00,40.00,9,5,18,0.00
2013-5-6,73.0,53.8,35.0,43.0,37.7,32.0,92,60,31,0.00,40.00,10,6,14,0.00
2013-5-7,78.0,55.9,35.0,44.0,33.9,19.0,96,55,11,0.00,40.00,11,4,17,0.00
2013-5-8,79.0,56.5,33.0,44.0,37.2,31.0,94,56,21,0.00,40.00,11,4,16,0.00
2013-5-9,57.0,49.0,38.0,43.0,36.8,31.0,87,64,51,0.00,40.00,14,8,28,0.01
2013-5-10,50.0,41.0,30.0,35.0,30.1,25.0,91,68,41,0.00,40.00,10,7,19,0.18
2013-5-11,47.0,36.7,25.0,38.0,28.8,23.0,95,76,41,0.00,40.00,11,5,24,0.25
2013-5-12,41.0,35.0,31.0,33.0,25.2,-99.9,92,71,48,0.00,40.00,11,8,26,0.05
2013-5-13,54.0,38.5,22.0,28.0,21.6,16.0,89,56,27,0.00,40.00,14,6,20,0.01
2013-5-14,62.0,49.5,39.0,40.0,35.4,28.0,81,60,41,0.00,40.00,12,8,19,0.01
2013-5-15,79.0,60.3,41.0,46.0,37.3,25.0,94,52,14,0.00,40.00,11,6,23,0.01
2013-5-16,67.0,47.9,41.0,40.0,16.4,-99.9,81,51,29,0.00,40.00,13,6,22,0.00
2013-5-17,67.0,48.6,36.0,41.0,31.5,-99.9,87,64,36,0.00,40.00,9,4,15,0.00
2013-5-18,63.0,53.5,42.0,47.0,44.3,39.0,89,72,49,0.00,40.00,11,6,18,0.02
2013-5-19,78.0,62.8,51.0,60.0,52.2,44.0,89,70,49,0.00,40.00,11,5,19,0.01
2013-5-20,64.0,59.8,54.0,61.0,55.3,50.0,96,85,74,0.00,40.00,12,8,20,0.22
2013-5-21,62.0,55.8,52.0,57.0,54.6,51.0,100,96,84,0.00,40.00,11,6,23,0.21
2013-5-22,55.0,50.5,46.0,55.0,49.1,46.0,100,95,84,0.00,40.00,9,6,17,0.13
2013-5-23,47.0,43.3,38.0,47.0,33.7,27.0,99,70,48,0.00,40.00,14,11,31,0.22
2013-5-24,62.0,45.0,28.0,38.0,30.6,26.0,99,64,26,0.00,40.00,9,5,17,0.01
2013-5-25,65.0,47.8,28.0,39.0,32.6,28.0,100,63,30,0.00,40.00,12,5,20,0.00
2013-5-26,68.0,50.5,29.0,42.0,31.9,27.0,100,58,22,0.00,40.00,9,4,23,0.00
2013-5-27,71.0,53.9,32.0,44.0,35.1,31.0,98,57,25,0.00,40.00,11,5,19,0.00
2013-5-28,58.0,53.8,52.0,52.0,44.9,32.0,98,73,37,0.00,40.00,9,6,13,0.00
2013-5-29,72.0,60.4,51.0,59.0,55.0,51.0,100,84,59,0.00,40.00,13,6,20,0.00
2013-5-30,81.0,66.4,53.0,63.0,58.7,52.0,98,79,54,0.00,40.00,15,8,24,0.00
2013-5-31,76.0,65.2,57.0,62.0,59.0,55.0,99,82,59,0.00,40.00,17,8,23,0.02
2013-6-1,75.0,59.8,45.0,63.0,56.5,44.0,100,90,62,0.00,40.00,9,5,36,0.76
2013-6-2,57.0,46.1,37.0,44.0,38.7,33.0,98,78,49,0.00,40.00,11,8,29,0.10
2013-6-3,66.0,47.7,28.0,42.0,33.4,28.0,100,65,32,0.00,40.00,11,5,20,0.01
2013-6-4,64.0,48.8,26.0,42.0,32.4,26.0,98,60,30,0.00,40.00,10,3,13,0.00
2013-6-5,56.0,51.8,47.0,48.0,44.1,40.0,96,75,61,0.00,40.00,8,4,15,0.00
2013-6-6,64.0,54.3,48.0,47.0,42.4,34.0,88,66,32,0.00,40.00,8,5,14,0.01
2013-6-7,77.0,59.5,45.0,44.0,40.4,35.0,85,55,22,0.00,40.00,9,5,17,0.01
2013-6-8,75.0,58.5,42.0,45.0,40.4,37.0,93,57,28,0.00,40.00,11,5,20,0.00
2013-6-9,74.0,58.5,36.0,50.0,45.4,35.0,99,66,41,0.00,40.00,11,6,18,0.00
2013-6-10,76.0,66.5,56.0,58.0,54.0,49.0,87,65,54,0.00,40.00,9,7,15,0.00
2013-6-11,75.0,63.4,56.0,63.0,58.5,55.0,100,86,62,0.00,40.00,9,4,13,0.00
2013-6-12,79.0,61.9,42.0,59.0,51.6,42.0,100,73,42,0.00,40.00,10,3,16,0.00
2013-6-13,65.0,58.2,52.0,53.0,48.7,45.0,87,72,57,0.00,40.00,12,8,21,0.00
2013-6-14,78.0,59.7,44.0,45.0,39.9,32.0,83,53,20,0.00,40.00,10,5,16,0.00
2013-6-15,71.0,59.6,49.0,57.0,50.2,37.0,85,72,52,0.00,40.00,9,4,14,0.00
2013-6-16,84.0,68.9,55.0,63.0,54.3,48.0,100,66,29,0.00,40.00,10,5,21,0.00
2013-6-17,63.0,54.8,43.0,54.0,49.2,39.0,98,82,54,0.00,40.00,10,5,17,0.05
2013-6-18,73.0,54.9,34.0,45.0,39.7,33.0,98,63,27,0.00,40.00,12,5,18,0.02
2013-6-19,75.0,56.2,32.0,50.0,40.4,32.0,98,62,31,0.00,40.00,13,6,23,0.00
2013-6-20,78.0,60.7,47.0,56.0,50.6,44.0,96,72,45,0.00,40.00,8,5,13,0.00
2013-6-22,70.0,65.7,60.0,63.0,60.6,59.0,98,84,74,0.00,40.00,9,5,16,0.03
2013-6-23,78.0,66.1,57.0,69.0,61.4,57.0,100,87,61,0.00,40.00,12,5,18,0.08
2013-6-24,86.0,72.5,59.0,69.0,64.8,59.0,100,79,50,0.00,40.00,13,6,22,0.08
2013-6-25,87.0,75.0,67.0,70.0,65.1,58.0,98,74,37,0.00,40.00,12,6,17,0.00
2013-6-26,84.0,71.0,57.0,68.0,63.6,57.0,100,80,55,0.00,40.00,12,5,21,0.94
2013-6-27,80.0,67.6,62.0,70.0,64.3,61.0,99,90,67,0.00,40.00,8,4,22,1.34
2013-6-28,69.0,62.6,58.0,64.0,60.3,57.0,100,93,82,0.00,40.00,9,4,17,0.30
2013-6-29,72.0,62.9,56.0,57.0,53.0,44.0,95,72,51,0.00,40.00,11,7,22,0.02
2013-6-30,80.0,65.3,49.0,47.0,41.9,37.0,76,47,24,0.00,40.00,11,6,20,0.00
2013-7-1,80.0,63.8,51.0,56.0,45.1,37.0,76,53,32,0.00,40.00,10,5,17,0.00
2013-7-2,79.0,61.0,42.0,49.0,43.8,40.0,91,58,26,0.00,40.00,9,5,15,0.00
2013-7-3,80.0,67.2,53.0,55.0,48.2,37.0,87,55,21,0.00,40.00,8,4,15,0.00
2013-7-4,79.0,69.5,54.0,63.0,59.4,53.0,99,72,54,0.00,40.00,13,6,22,0.00
2013-7-5,86.0,73.5,61.0,67.0,61.0,56.0,97,68,36,0.00,40.00,16,8,24,0.00
2013-7-6,89.0,76.0,67.0,65.0,62.1,58.0,84,64,40,0.00,40.00,16,9,25,0.00
2013-7-7,83.0,73.7,68.0,71.0,66.1,59.0,90,78,63,0.00,40.00,8,4,13,0.02
2013-7-8,82.0,69.0,62.0,71.0,64.9,60.0,99,87,64,0.00,40.00,9,5,15,2.18
2013-7-9,76.0,66.0,59.0,67.0,63.7,59.0,100,92,75,0.00,40.00,9,5,14,0.21
2013-7-10,76.0,67.8,56.0,69.0,54.2,-99.9,99,68,46,0.00,40.00,10,6,21,0.21
2013-7-11,83.0,65.4,48.0,57.0,52.1,47.0,98,67,30,0.00,40.00,10,4,17,0.00
2013-7-12,82.0,65.8,48.0,61.0,53.4,48.0,99,70,39,0.00,40.00,13,6,20,0.00
2013-7-13,85.0,71.7,57.0,63.0,59.8,54.0,99,69,45,0.00,40.00,12,7,19,0.00
2013-7-14,87.0,72.5,53.0,66.0,60.7,53.0,99,71,45,0.00,40.00,12,5,17,0.00
2013-7-15,90.0,73.9,59.0,71.0,64.8,59.0,99,77,44,0.00,40.00,11,4,17,0.00
2013-7-16,90.0,82.9,70.0,77.0,72.8,65.0,88,72,58,0.00,40.00,14,9,22,0.16
2013-7-17,94.0,81.7,71.0,74.0,70.8,68.0,99,73,47,0.00,40.00,14,5,22,0.16
2013-7-18,86.0,77.1,68.0,78.0,71.7,67.0,99,85,64,0.00,40.00,13,6,22,0.23
2013-7-19,87.0,76.9,63.0,75.0,67.3,57.0,94,73,56,0.00,40.00,9,6,25,0.31
2013-7-20,70.0,63.4,50.0,60.0,47.6,-99.9,92,60,37,0.00,40.00,10,7,20,0.04
2013-7-21,69.0,55.2,38.0,56.0,47.4,37.0,98,78,53,0.00,40.00,5,2,9,0.00
2013-7-22,81.0,65.4,48.0,70.0,58.9,47.0,98,82,54,0.00,40.00,15,7,25,0.08
2013-7-23,71.0,60.6,47.0,69.0,50.5,41.0,93,71,42,0.00,40.00,13,7,29,0.08
2013-7-24,76.0,59.1,36.0,53.0,45.3,35.0,98,66,35,0.00,40.00,11,4,17,0.00
2013-7-25,79.0,65.1,51.0,60.0,54.5,50.0,98,72,43,0.00,40.00,17,7,26,0.53
2013-7-26,65.0,60.8,51.0,63.0,59.4,49.0,99,95,87,0.00,40.00,10,5,18,2.77
2013-7-27,65.0,55.2,46.0,51.0,47.8,45.0,98,78,58,0.00,40.00,7,4,15,0.03
2013-7-28,58.0,51.1,43.0,54.0,49.1,42.0,99,94,82,0.00,40.00,9,4,14,0.17
2013-7-29,76.0,59.4,49.0,57.0,51.7,48.0,98,79,41,0.00,40.00,10,5,15,0.03
2013-7-30,75.0,62.3,48.0,62.0,55.6,48.0,99,81,53,0.00,40.00,12,5,18,0.02
2013-7-31,78.0,67.5,59.0,66.0,61.0,52.0,96,81,62,0.00,40.00,14,5,22,0.02
2013-8-1,75.0,62.4,49.0,61.0,55.3,49.0,99,80,47,0.00,40.00,9,3,17,0.04
2013-8-2,76.0,62.7,49.0,60.0,54.4,48.0,99,78,40,0.00,40.00,10,3,18,0.14
2013-8-3,72.0,60.2,43.0,55.0,50.9,42.0,98,75,53,0.00,40.00,9,4,17,0.04
2013-8-4,74.0,59.6,43.0,53.0,48.2,42.0,98,71,39,0.00,40.00,8,4,14,0.00
2013-8-5,68.0,57.0,46.0,61.0,53.2,45.0,99,88,66,0.00,40.00,11,4,20,0.04
2013-8-6,76.0,66.7,60.0,65.0,62.4,59.0,99,87,67,0.00,40.00,10,5,18,0.01
2013-8-7,71.0,64.2,47.0,64.0,58.5,45.0,99,84,52,0.00,40.00,9,4,15,0.27
2013-8-8,77.0,58.7,38.0,58.0,49.5,38.0,99,76,44,0.00,40.00,9,3,13,0.03
2013-8-9,74.0,64.1,54.0,63.0,54.8,46.0,99,76,38,0.00,40.00,10,4,21,0.10
2013-8-10,75.0,61.6,41.0,55.0,49.8,41.0,99,70,41,0.00,40.00,10,4,15,0.03
2013-8-11,77.0,61.3,41.0,59.0,52.0,41.0,99,75,46,0.00,40.00,12,4,17,0.00
2013-8-12,76.0,61.7,49.0,62.0,55.7,46.0,99,82,58,0.00,40.00,11,5,24,0.01
2013-8-13,63.0,53.3,41.0,51.0,42.0,-99.9,98,71,46,0.00,40.00,11,6,24,0.01
2013-8-14,69.0,58.4,35.0,50.0,45.0,34.0,98,66,40,0.00,40.00,8,4,14,0.00
2013-8-15,78.0,54.2,35.0,54.0,37.3,-99.9,98,69,38,0.00,40.00,7,3,13,0.00
2013-8-16,81.0,62.3,41.0,58.0,47.4,-99.9,98,68,38,0.00,40.00,10,4,14,0.00
2013-8-17,82.0,66.0,46.0,62.0,53.8,45.0,99,70,37,0.00,40.00,14,5,22,0.00
2013-8-18,83.0,68.7,53.0,63.0,55.2,-99.9,93,66,43,0.00,40.00,10,5,16,0.00
2013-8-19,80.0,65.8,55.0,62.0,49.0,-99.9,97,71,50,0.00,40.00,15,8,23,0.00
2013-8-20,87.0,72.2,61.0,66.0,61.0,-99.9,96,73,46,0.00,40.00,15,7,22,0.00
2013-8-21,88.0,75.5,68.0,69.0,66.8,64.0,97,76,53,0.00,40.00,17,9,27,0.39
2013-8-22,81.0,69.9,51.0,68.0,55.0,46.0,99,66,29,0.00,40.00,9,4,17,0.40
2013-8-23,79.0,61.2,43.0,61.0,51.5,43.0,99,75,39,0.00,40.00,10,3,16,0.01
2013-8-24,81.0,65.1,48.0,63.0,54.9,48.0,99,74,36,0.00,40.00,12,6,22,0.00
2013-8-25,90.0,76.8,69.0,72.0,64.2,-99.9,84,68,52,0.00,40.00,13,10,20,0.00
2013-8-26,87.0,76.9,68.0,71.0,69.2,66.0,97,78,55,0.00,40.00,10,5,21,0.25
2013-8-27,79.0,71.5,69.0,71.0,69.3,68.0,98,93,76,0.00,40.00,9,4,18,0.52
2013-8-28,89.0,81.9,65.0,67.0,64.9,64.0,96,59,43,0.00,40.00,6,4,12,0.00
2013-8-29,87.0,72.1,58.0,70.0,65.4,58.0,99,82,51,0.00,40.00,10,4,17,0.00
2013-8-30,78.0,71.7,63.0,71.0,65.5,60.0,94,81,69,0.00,40.00,13,9,23,0.05
2013-8-31,76.0,64.4,58.0,65.0,59.5,-99.9,99,88,64,0.00,40.00,9,4,13,0.01
2013-9-1,75.0,65.1,57.0,69.0,62.0,53.0,100,90,58,0.00,40.00,11,6,19,0.53
2013-9-2,62.0,55.8,52.0,52.0,48.9,46.0,89,78,64,0.00,40.00,10,7,24,0.02
2013-9-3,77.0,61.2,42.0,56.0,50.1,41.0,98,71,40,0.00,40.00,8,4,16,0.00
2013-9-4,68.0,59.9,44.0,57.0,48.5,36.0,97,69,36,0.00,40.00,9,5,18,0.00
2013-9-5,67.0,53.3,35.0,49.0,44.1,34.0,98,75,45,0.00,40.00,10,4,14,0.00
2013-9-6,78.0,63.2,49.0,63.0,54.1,47.0,98,74,51,0.00,40.00,14,8,21,0.01
2013-9-7,83.0,69.2,58.0,70.0,64.1,55.0,98,85,63,0.00,40.00,10,5,17,0.18
2013-9-8,70.0,57.3,48.0,57.0,50.1,-99.9,99,81,51,0.00,40.00,7,4,15,0.16
2013-9-9,69.0,61.8,50.0,67.0,60.9,50.0,99,97,89,0.00,40.00,14,4,21,0.05
2013-9-10,88.0,72.8,66.0,73.0,67.0,62.0,100,85,47,0.00,40.00,10,4,22,0.06
2013-9-11,83.0,68.7,60.0,66.0,62.8,59.0,100,84,51,0.00,40.00,11,4,18,0.06
2013-9-12,62.0,56.0,49.0,57.0,50.6,43.0,98,83,66,0.00,40.00,12,5,24,0.05
2013-9-13,60.0,50.7,37.0,46.0,39.0,36.0,96,66,45,0.00,40.00,9,5,20,0.01
2013-9-14,70.0,51.1,30.0,52.0,41.5,29.0,98,74,42,0.00,40.00,14,6,24,0.00
2013-9-15,60.0,53.5,40.0,55.0,46.3,-99.9,98,80,64,0.00,40.00,11,6,22,0.11
2013-9-16,64.0,48.6,30.0,43.0,38.0,29.0,99,72,38,0.00,40.00,8,3,17,0.02
2013-9-17,65.0,47.4,28.0,51.0,40.8,28.0,98,81,56,0.00,40.00,12,5,20,0.00
2013-9-18,64.0,51.8,46.0,61.0,51.5,45.0,100,99,91,0.00,40.00,7,3,10,0.13
2013-9-19,75.0,67.1,64.0,69.0,65.3,61.0,98,94,81,0.00,40.00,11,8,22,0.39
2013-9-20,75.0,66.3,57.0,68.0,62.5,50.0,100,89,56,0.00,40.00,10,4,21,0.25
2013-9-21,55.0,50.5,44.0,49.0,43.1,38.0,97,77,57,0.00,40.00,10,5,18,0.01
2013-9-22,56.0,46.4,41.0,44.0,39.6,-99.9,96,81,58,0.00,40.00,7,3,12,0.01
2013-9-23,58.0,45.6,33.0,48.0,40.5,32.0,99,84,59,0.00,40.00,10,4,22,0.00
2013-9-24,69.0,47.3,32.0,55.0,43.0,32.0,100,87,56,0.00,40.00,8,2,14,0.00
2013-9-25,70.0,49.5,35.0,54.0,45.0,35.0,100,87,56,0.00,40.00,10,3,13,0.00
2013-9-26,72.0,52.5,36.0,57.0,46.8,36.0,100,84,49,0.00,40.00,9,4,14,0.00
2013-9-27,75.0,55.7,40.0,61.0,49.3,40.0,100,82,52,0.00,40.00,12,5,22,0.01
2013-9-28,72.0,64.1,54.0,61.0,56.1,53.0,99,77,58,0.00,40.00,18,12,29,0.11
2013-9-29,68.0,56.1,47.0,59.0,48.3,-99.9,98,80,53,0.00,40.00,9,5,24,0.14
2013-9-30,69.0,56.5,40.0,54.0,48.1,40.0,100,77,45,0.00,40.00,17,8,27,0.01
2013-10-1,69.0,65.6,59.0,54.0,45.8,43.0,85,50,43,0.00,40.00,9,5,14,0.00
2013-10-2,74.0,56.8,37.0,43.0,39.3,35.0,92,56,28,0.00,40.00,10,4,17,0.00
2013-10-3,67.0,55.3,41.0,55.0,50.0,40.0,99,84,60,0.00,40.00,8,4,14,0.23
2013-10-4,63.0,56.9,54.0,54.0,50.9,49.0,92,81,65,0.00,40.00,8,5,14,0.01
2013-10-5,55.0,53.4,51.0,54.0,51.7,49.0,98,94,87,0.00,40.00,12,9,21,0.65
2013-10-6,67.0,59.2,54.0,61.0,56.2,50.0,100,90,61,0.00,40.00,12,8,19,0.52
2013-10-7,62.0,50.7,34.0,51.0,42.6,33.0,98,76,46,0.00,40.00,8,5,20,0.04
2013-10-8,68.0,49.9,29.0,56.0,43.3,29.0,99,81,47,0.00,40.00,15,7,22,0.01
2013-10-9,71.0,61.8,52.0,57.0,52.4,48.0,98,74,46,0.00,40.00,15,9,25,0.00
2013-10-10,70.0,58.8,39.0,57.0,50.8,38.0,100,77,49,0.00,40.00,10,6,15,0.00
2013-10-11,69.0,55.2,44.0,60.0,49.9,44.0,100,85,51,0.00,40.00,12,4,17,0.01
2013-10-12,66.0,59.3,51.0,60.0,55.0,44.0,98,86,69,0.00,40.00,14,9,24,0.17
2013-10-13,57.0,48.1,34.0,45.0,39.3,-99.9,98,75,55,0.00,40.00,7,4,14,0.02
2013-10-14,60.0,41.6,25.0,40.0,33.3,24.0,98,77,37,0.00,40.00,7,2,11,0.00
2013-10-15,56.0,49.8,40.0,55.0,47.6,38.0,100,92,78,0.00,40.00,10,6,15,0.15
2013-10-16,55.0,49.5,45.0,55.0,46.2,38.0,100,89,76,0.00,40.00,8,5,17,0.11
2013-10-17,52.0,39.9,25.0,39.0,33.0,24.0,98,79,52,0.00,40.00,6,2,9,0.01
2013-10-18,48.0,39.5,29.0,46.0,38.5,29.0,100,96,86,0.00,40.00,5,2,10,0.11
2013-10-19,53.0,40.9,31.0,40.0,35.4,31.0,99,84,46,0.00,40.00,8,3,18,0.09
2013-10-20,49.0,37.9,30.0,40.0,33.9,-99.9,99,89,62,0.00,40.00,9,3,16,0.18
2013-10-21,43.0,38.5,33.0,40.0,31.4,21.0,99,77,53,0.00,40.00,12,7,22,0.23
2013-10-22,45.0,36.5,27.0,38.0,30.9,24.0,93,81,65,0.00,40.00,12,7,20,0.01
2013-10-23,46.0,34.2,24.0,31.0,25.4,22.0,96,73,40,0.00,40.00,10,4,20,0.01
2013-10-24,46.0,35.8,25.0,31.0,27.2,24.0,95,73,44,0.00,40.00,8,5,18,0.00
2013-10-25,47.0,37.1,24.0,35.0,27.9,23.0,97,72,47,0.00,40.00,17,8,30,0.00
2013-10-26,48.0,42.0,33.0,37.0,32.0,29.0,90,68,53,0.00,40.00,14,8,25,0.00
2013-10-27,50.0,39.9,33.0,35.0,28.8,-99.9,91,67,48,0.00,40.00,11,5,17,0.00
2013-10-28,42.0,34.5,20.0,36.0,22.0,-99.9,92,66,41,0.00,40.00,11,6,21,0.01
2013-10-29,39.0,28.2,13.0,33.0,23.3,10.0,99,83,59,0.00,40.00,4,2,8,0.02
2013-10-30,50.0,41.3,33.0,50.0,40.9,33.0,100,98,94,0.00,40.00,7,3,11,0.10
2013-10-31,55.0,52.2,49.0,55.0,52.2,49.0,100,100,99,0.00,40.00,7,4,12,0.64
2013-11-1,49.0,44.4,40.0,49.0,42.3,38.0,100,93,83,0.00,40.00,7,5,18,1.09
2013-11-2,43.0,37.1,33.0,37.0,32.9,29.0,99,85,68,0.00,40.00,9,4,17,0.02
2013-11-3,45.0,34.6,20.0,40.0,29.6,-99.9,97,85,62,0.00,40.00,13,4,20,0.06
2013-11-4,50.0,46.8,44.0,45.0,39.6,37.0,87,76,64,0.00,40.00,20,15,30,0.02
2013-11-5,54.0,46.2,38.0,45.0,38.5,34.0,98,77,47,0.00,40.00,10,5,21,0.24
2013-11-6,42.0,38.4,35.0,41.0,35.5,26.0,99,90,69,0.00,40.00,9,7,22,0.95
2013-11-7,39.0,35.0,30.0,29.0,26.3,24.0,83,70,61,0.00,40.00,9,7,16,0.03
2013-11-8,44.0,36.5,29.0,32.0,25.6,19.0,90,67,37,0.00,40.00,10,6,15,0.00
2013-11-9,43.0,40.8,39.0,42.0,35.2,-99.9,98,84,69,0.00,40.00,15,10,25,0.45
2013-11-10,40.0,38.1,33.0,33.0,28.3,24.0,84,68,56,0.00,40.00,10,7,24,0.03
2013-11-11,39.0,28.6,23.0,33.0,19.2,10.0,93,69,42,0.00,40.00,11,8,25,0.01
2013-11-12,32.0,25.6,20.0,20.0,11.4,8.0,83,56,41,0.00,40.00,9,7,20,0.01
2013-11-13,42.0,32.1,21.0,29.0,18.6,9.0,69,58,48,0.00,40.00,16,11,27,0.01
2013-11-14,39.0,36.6,34.0,33.0,27.2,21.0,89,69,56,0.00,40.00,11,8,16,0.02
2013-11-15,49.0,35.8,24.0,39.0,32.4,23.0,99,89,67,0.00,40.00,12,4,17,0.01
2013-11-16,51.0,42.2,28.0,50.0,40.0,-99.9,100,95,84,0.00,40.00,21,11,36,1.02
2013-11-17,52.0,49.4,42.0,52.0,48.6,36.0,100,97,79,0.00,40.00,13,7,29,1.28
2013-11-18,42.0,33.5,30.0,36.0,22.3,16.0,80,63,55,0.00,40.00,14,10,29,0.11
2013-11-19,35.0,29.2,21.0,30.0,18.4,13.0,91,65,48,0.00,40.00,7,5,16,0.00
2013-11-20,42.0,39.8,33.0,35.0,33.0,30.0,89,76,68,0.00,40.00,15,10,27,0.00
2013-11-21,42.0,38.2,32.0,38.0,35.1,28.0,100,89,62,0.00,40.00,11,4,19,0.08
2013-11-22,35.0,30.1,26.0,31.0,20.9,13.0,96,70,52,0.00,40.00,9,7,21,0.04
2013-11-23,25.0,15.7,10.0,17.0,3.5,-99.9,82,60,46,0.00,40.00,12,9,25,0.01
2013-11-24,25.0,16.3,10.0,10.0,2.9,-1.0,73,56,41,0.00,40.00,19,8,32,0.00
2013-11-25,35.0,30.0,24.0,25.0,16.9,5.0,74,58,41,0.00,40.00,15,12,31,0.00
2013-11-26,31.0,22.7,13.0,25.0,13.6,3.0,86,68,52,0.00,40.00,8,6,20,0.00
2013-11-27,26.0,18.9,12.0,17.0,12.8,6.0,91,78,54,0.00,40.00,11,4,21,0.01
2013-11-28,25.0,19.5,12.0,21.0,16.7,9.0,93,89,81,0.00,40.00,5,2,10,0.01
2013-11-29,31.0,20.5,5.0,25.0,15.1,1.0,92,80,62,0.00,40.00,10,3,15,0.06
2013-11-30,35.0,31.5,28.0,27.0,22.8,-99.9,87,73,65,0.00,40.00,13,6,23,0.02
2013-12-1,34.0,31.5,29.0,31.0,27.9,25.0,98,86,74,0.00,40.00,4,2,9,0.00
2013-12-2,40.0,30.8,24.0,31.0,26.0,21.0,98,83,62,0.00,40.00,9,4,15,0.00
2013-12-3,30.0,25.8,24.0,24.0,22.5,21.0,94,87,75,0.00,40.00,8,7,14,0.00
2013-12-4,39.0,29.6,24.0,39.0,28.6,23.0,100,96,91,0.00,40.00,12,8,23,0.97
2013-12-5,41.0,25.5,11.0,41.0,15.5,0.0,100,66,48,0.00,40.00,16,12,29,0.98
2013-12-6,20.0,10.6,3.0,3.0,-0.8,-4.0,72,60,42,0.00,40.00,11,7,21,0.00
2013-12-7,16.0,6.8,1.0,-2.0,-6.5,-99.9,70,57,38,0.00,40.00,9,7,17,0.00
2013-12-8,12.0,4.5,-4.0,9.0,-3.2,-12.0,86,70,56,0.00,40.00,7,4,13,0.00
2013-12-9,20.0,12.9,-1.0,14.0,5.7,-12.0,91,74,53,0.00,40.00,13,6,24,0.00
2013-12-10,15.0,3.7,-6.0,-1.0,-6.5,-14.0,75,62,48,0.00,40.00,10,7,16,0.00
2013-12-11,12.0,3.6,-3.0,-5.0,-8.9,-13.0,70,56,41,0.00,40.00,9,6,16,0.00
2013-12-12,16.0,5.1,-5.0,1.0,-7.1,-15.0,64,57,44,0.00,40.00,9,7,15,0.00
2013-12-13,15.0,9.3,2.0,5.0,-0.1,-4.0,85,66,53,0.00,40.00,7,4,14,0.00
2013-12-14,14.0,8.8,1.0,9.0,1.3,-99.9,85,74,53,0.00,40.00,7,5,14,0.00
2013-12-15,21.0,14.1,7.0,13.0,7.3,3.0,90,75,46,0.00,40.00,12,5,23,0.00
2013-12-16,21.0,13.2,-6.0,12.0,6.5,-11.0,87,74,55,0.00,40.00,10,5,15,0.03
2013-12-17,25.0,15.6,5.0,19.0,10.3,1.0,87,80,67,0.00,40.00,7,5,17,0.02
2013-12-18,19.0,16.4,14.0,12.0,7.9,4.0,88,69,58,0.00,40.00,9,5,15,0.01
2013-12-19,25.0,18.4,4.0,19.0,12.5,1.0,89,78,68,0.00,40.00,10,5,21,0.00
2013-12-20,23.0,19.7,15.0,18.0,15.1,12.0,89,82,71,0.00,40.00,8,5,14,0.00
2013-12-21,27.0,20.1,14.0,18.0,15.2,-99.9,91,84,68,0.00,40.00,6,3,10,0.00
2013-12-22,22.0,20.3,19.0,18.0,15.0,11.0,89,80,69,0.00,40.00,11,7,20,0.00
2013-12-23,20.0,16.7,8.0,16.0,11.9,4.0,92,81,68,0.00,40.00,6,3,13,0.00
2013-12-24,22.0,8.4,0.0,10.0,2.2,-4.0,88,76,49,0.00,40.00,7,2,10,0.02
2013-12-25,18.0,12.0,4.0,11.0,5.9,0.0,87,77,62,0.00,40.00,10,7,20,0.02
2013-12-26,21.0,10.5,-13.0,11.0,2.7,-19.0,86,72,48,0.00,40.00,6,3,13,0.02
2013-12-27,28.0,13.2,-17.0,24.0,8.2,-24.0,85,80,68,0.00,40.00,14,6,22,0.01
2013-12-28,38.0,31.3,28.0,31.0,26.1,-99.9,93,85,70,0.00,40.00,9,4,15,0.10
2013-12-29,32.0,15.8,1.0,30.0,7.5,-10.0,93,70,52,0.00,40.00,14,10,27,0.01
2013-12-30,10.0,0.2,-9.0,-6.0,-10.6,-16.0,72,60,47,0.00,40.00,6,4,13,0.00
2013-12-31,10.0,-0.2,-8.0,-9.0,-12.4,-16.0,67,56,38,0.00,40.00,8,5,17,0.00
2014-1-1,15.0,-0.2,-13.0,-3.0,-10.6,-19.0,75,61,43,0.00,40.00,5,3,11,0.00
2014-1-2,15.0,3.8,-6.0,5.0,-5.4,-12.0,77,65,50,0.00,40.00,7,4,14,0.00